Station Historical Data
Daily Summary for January 6, 2017 Units:  Metric    English   Both
« Previous Day
Next Day »
Daily Weekly Monthly Yearly Custom
  High: Low: Average:
Temperature: -7.3 °C -14.6 °C -11 °C
Dew Point: -13.7 °C -18.5 °C -16.1 °C
Humidity: 77% 54% 67%
Wind Speed: 25.7km/h 0km/h 6.6km/h
Wind Gust: 33.8km/h - -
Wind- - West
Pressure: 1027.3 hPa 1015.8 hPa -
Precipitation: 0 mm    
Historical Graphs
 
 
Tabular Data for January 6, 2017
Time Temperature Dew Point Pressure Wind Wind Speed Wind Gust Humidity Rainfall Rate (Hourly)
00:04 -10.2 °C -14.1 °C 1015.8 hPa SW 8 km/h 12.9 km/h 73% 0 mm
00:09 -10.3 °C -14.2 °C 1015.8 hPa West 6.4 km/h 14.5 km/h 73% 0 mm
00:14 -10.3 °C -14.4 °C 1015.8 hPa West 8 km/h 19.3 km/h 72% 0 mm
00:19 -10.4 °C -14.5 °C 1015.8 hPa West 9.7 km/h 19.3 km/h 72% 0 mm
00:24 -10.4 °C -14.5 °C 1016.1 hPa West 8 km/h 17.7 km/h 72% 0 mm
00:29 -10.6 °C -14.6 °C 1016.1 hPa West 8 km/h 14.5 km/h 72% 0 mm
00:34 -10.7 °C -14.7 °C 1016.1 hPa West 8 km/h 16.1 km/h 72% 0 mm
00:39 -10.7 °C -14.6 °C 1016.1 hPa West 12.9 km/h 14.5 km/h 73% 0 mm
00:44 -10.7 °C -14.6 °C 1016.1 hPa WNW 4.8 km/h 14.5 km/h 73% 0 mm
00:49 -10.8 °C -14.8 °C 1016.1 hPa West 3.2 km/h 12.9 km/h 72% 0 mm
00:54 -10.8 °C -14.9 °C 1016.1 hPa WNW 9.7 km/h 24.1 km/h 72% 0 mm
00:59 -10.9 °C -14.9 °C 1016.1 hPa WNW 6.4 km/h 19.3 km/h 72% 0 mm
01:04 -10.9 °C -14.9 °C 1016.1 hPa West 11.3 km/h 20.9 km/h 72% 0 mm
01:09 -10.9 °C -15 °C 1016.1 hPa West 11.3 km/h 19.3 km/h 72% 0 mm
01:14 -11 °C -15.1 °C 1016.1 hPa West 8 km/h 19.3 km/h 72% 0 mm
01:19 -11.1 °C -15.1 °C 1016.1 hPa West 8 km/h 14.5 km/h 72% 0 mm
01:24 -11.2 °C -15.2 °C 1016.1 hPa West 8 km/h 14.5 km/h 72% 0 mm
01:29 -11.2 °C -15.3 °C 1016.1 hPa West 6.4 km/h 14.5 km/h 72% 0 mm
01:34 -11.3 °C -15.4 °C 1015.8 hPa WNW 4.8 km/h 17.7 km/h 72% 0 mm
01:39 -11.4 °C -15.4 °C 1015.8 hPa NW 9.7 km/h 16.1 km/h 72% 0 mm
01:44 -11.4 °C -15.5 °C 1016.1 hPa WNW 3.2 km/h 11.3 km/h 72% 0 mm
01:49 -11.6 °C -15.6 °C 1016.1 hPa WSW 6.4 km/h 12.9 km/h 72% 0 mm
01:54 -11.7 °C -15.6 °C 1016.1 hPa West 6.4 km/h 12.9 km/h 73% 0 mm
01:59 -11.8 °C -15.7 °C 1016.1 hPa West 3.2 km/h 11.3 km/h 73% 0 mm
02:04 -11.8 °C -15.7 °C 1016.1 hPa West 8 km/h 12.9 km/h 73% 0 mm
02:09 -11.9 °C -15.8 °C 1016.1 hPa West 6.4 km/h 12.9 km/h 73% 0 mm
02:14 -12 °C -15.8 °C 1016.1 hPa West 4.8 km/h 11.3 km/h 73% 0 mm
02:19 -12.1 °C -15.9 °C 1016.1 hPa WNW 4.8 km/h 14.5 km/h 73% 0 mm
02:24 -12.1 °C -15.8 °C 1016.5 hPa West 6.4 km/h 14.5 km/h 74% 0 mm
02:29 -12.2 °C -15.8 °C 1016.5 hPa WNW 8 km/h 8 km/h 74% 0 mm
02:34 -12.2 °C -15.9 °C 1016.5 hPa West 4.8 km/h 8 km/h 74% 0 mm
02:39 -12.3 °C -15.9 °C 1016.5 hPa West 4.8 km/h 8 km/h 74% 0 mm
02:44 -12.3 °C -16 °C 1016.5 hPa West 3.2 km/h 8 km/h 74% 0 mm
02:49 -12.4 °C -16.1 °C 1016.5 hPa WNW 3.2 km/h 6.4 km/h 74% 0 mm
02:54 -12.4 °C -15.9 °C 1016.5 hPa WNW 3.2 km/h 9.7 km/h 75% 0 mm
02:59 -12.5 °C -16 °C 1016.5 hPa West 4.8 km/h 12.9 km/h 75% 0 mm
03:04 -12.6 °C -16.1 °C 1016.5 hPa West 4.8 km/h 12.9 km/h 75% 0 mm
03:09 -12.5 °C -16 °C 1016.5 hPa WSW 1.6 km/h 8 km/h 75% 0 mm
03:14 -12.6 °C -16.1 °C 1016.5 hPa WNW 3.2 km/h 11.3 km/h 75% 0 mm
03:19 -12.6 °C -16.1 °C 1016.5 hPa West 3.2 km/h 9.7 km/h 75% 0 mm
03:29 -12.6 °C -16.1 °C 1016.5 hPa West 4.8 km/h 14.5 km/h 75% 0 mm
03:34 -12.6 °C -16.1 °C 1016.5 hPa West 4.8 km/h 14.5 km/h 75% 0 mm
03:39 -12.5 °C -16 °C 1016.5 hPa WSW 4.8 km/h 12.9 km/h 75% 0 mm
03:44 -12.4 °C -16.1 °C 1016.8 hPa SW 4.8 km/h 16.1 km/h 74% 0 mm
03:49 -12.4 °C -16.1 °C 1016.8 hPa West 4.8 km/h 16.1 km/h 74% 0 mm
03:54 -12.4 °C -15.9 °C 1016.8 hPa WSW 3.2 km/h 9.7 km/h 75% 0 mm
03:59 -12.4 °C -16.1 °C 1016.8 hPa WSW 4.8 km/h 11.3 km/h 74% 0 mm
04:04 -12.4 °C -16.1 °C 1016.8 hPa WSW 4.8 km/h 11.3 km/h 74% 0 mm
04:09 -12.4 °C -16.1 °C 1016.8 hPa West 4.8 km/h 11.3 km/h 74% 0 mm
04:14 -12.5 °C -16 °C 1016.8 hPa West 3.2 km/h 9.7 km/h 75% 0 mm
04:19 -12.5 °C -16 °C 1016.8 hPa West 4.8 km/h 12.9 km/h 75% 0 mm
04:24 -12.6 °C -16.1 °C 1016.8 hPa WSW 4.8 km/h 12.9 km/h 75% 0 mm
04:29 -12.6 °C -16.1 °C 1017.2 hPa WSW 6.4 km/h 11.3 km/h 75% 0 mm
04:34 -12.6 °C -16.1 °C 1017.2 hPa West 4.8 km/h 11.3 km/h 75% 0 mm
04:39 -12.7 °C -16.2 °C 1017.2 hPa West 4.8 km/h 11.3 km/h 75% 0 mm
04:44 -12.7 °C -16.2 °C 1017.2 hPa West 3.2 km/h 11.3 km/h 75% 0 mm
04:49 -12.7 °C -16.2 °C 1017.2 hPa West 6.4 km/h 11.3 km/h 75% 0 mm
04:54 -12.7 °C -16.2 °C 1017.2 hPa West 4.8 km/h 11.3 km/h 75% 0 mm
04:59 -12.8 °C -16.3 °C 1017.2 hPa West 4.8 km/h 9.7 km/h 75% 0 mm
05:04 -12.8 °C -16.3 °C 1017.5 hPa West 4.8 km/h 9.7 km/h 75% 0 mm
05:09 -12.9 °C -16.6 °C 1017.5 hPa West 4.8 km/h 9.7 km/h 74% 0 mm
05:14 -12.9 °C -16.6 °C 1017.5 hPa WNW 8 km/h 8 km/h 74% 0 mm
05:19 -12.9 °C -16.6 °C 1017.5 hPa West 4.8 km/h 16.1 km/h 74% 0 mm
05:24 -12.9 °C -16.6 °C 1017.5 hPa West 4.8 km/h 8 km/h 74% 0 mm
05:29 -12.9 °C -16.6 °C 1017.5 hPa WSW 4.8 km/h 6.4 km/h 74% 0 mm
05:34 -12.9 °C -16.6 °C 1017.5 hPa WNW 4.8 km/h 8 km/h 74% 0 mm
05:39 -12.9 °C -16.6 °C 1017.8 hPa West 4.8 km/h 8 km/h 74% 0 mm
05:44 -12.9 °C -16.6 °C 1017.8 hPa WSW 4.8 km/h 9.7 km/h 74% 0 mm
05:49 -12.9 °C -16.6 °C 1017.8 hPa West 12.9 km/h 12.9 km/h 74% 0 mm
05:54 -12.8 °C -16.7 °C 1018.2 hPa West 8 km/h 14.5 km/h 73% 0 mm
05:59 -12.8 °C -16.7 °C 1018.2 hPa WNW 6.4 km/h 11.3 km/h 73% 0 mm
06:04 -12.8 °C -16.7 °C 1018.2 hPa WNW 4.8 km/h 12.9 km/h 73% 0 mm
06:09 -12.8 °C -16.7 °C 1018.2 hPa West 6.4 km/h 17.7 km/h 73% 0 mm
06:14 -12.8 °C -16.7 °C 1018.5 hPa West 6.4 km/h 17.7 km/h 73% 0 mm
06:19 -12.8 °C -16.6 °C 1018.5 hPa WNW 6.4 km/h 12.9 km/h 73% 0 mm
06:24 -12.8 °C -16.8 °C 1018.5 hPa West 8 km/h 16.1 km/h 72% 0 mm
06:29 -12.8 °C -16.6 °C 1018.5 hPa WNW 11.3 km/h 12.9 km/h 73% 0 mm
06:34 -12.7 °C -16.7 °C 1018.5 hPa West 11.3 km/h 14.5 km/h 72% 0 mm
06:39 -12.7 °C -16.7 °C 1018.5 hPa West 8 km/h 12.9 km/h 72% 0 mm
06:44 -12.8 °C -16.8 °C 1018.5 hPa NW 1.6 km/h 9.7 km/h 72% 0 mm
06:49 -12.8 °C -17 °C 1018.5 hPa West 6.4 km/h 14.5 km/h 71% 0 mm
06:54 -12.9 °C -17.1 °C 1018.2 hPa WNW 4.8 km/h 8 km/h 71% 0 mm
06:59 -13 °C -17.2 °C 1018.5 hPa SW 3.2 km/h 8 km/h 71% 0 mm
07:04 -13.1 °C -17.3 °C 1018.5 hPa West 4.8 km/h 8 km/h 71% 0 mm
07:09 -13.2 °C -17.2 °C 1018.5 hPa West 6.4 km/h 11.3 km/h 72% 0 mm
07:14 -13.2 °C -17.2 °C 1018.5 hPa West 4.8 km/h 11.3 km/h 72% 0 mm
07:19 -13.2 °C -17.2 °C 1018.5 hPa WSW 6.4 km/h 9.7 km/h 72% 0 mm
07:24 -13.2 °C -17.2 °C 1018.5 hPa West 4.8 km/h 9.7 km/h 72% 0 mm
07:29 -13.2 °C -17.2 °C 1018.5 hPa WSW 6.4 km/h 6.4 km/h 72% 0 mm
07:34 -13.3 °C -17.3 °C 1018.8 hPa West 1.6 km/h 8 km/h 72% 0 mm
07:39 -13.3 °C -17.4 °C 1018.8 hPa West 6.4 km/h 9.7 km/h 71% 0 mm
07:44 -13.3 °C -17.4 °C 1018.8 hPa West 4.8 km/h 12.9 km/h 71% 0 mm
07:49 -13.2 °C -17.4 °C 1018.8 hPa WSW 9.7 km/h 12.9 km/h 71% 0 mm
07:54 -13.1 °C -17.2 °C 1018.8 hPa West 8 km/h 25.7 km/h 71% 0 mm
07:59 -13 °C -17.2 °C 1018.8 hPa WNW 9.7 km/h 25.7 km/h 71% 0 mm
08:04 -12.9 °C -17.1 °C 1018.8 hPa WNW 9.7 km/h 17.7 km/h 71% 0 mm
08:09 -12.9 °C -17.1 °C 1019.2 hPa West 3.2 km/h 14.5 km/h 71% 0 mm
08:14 -13.1 °C -17.2 °C 1019.2 hPa NW 4.8 km/h 11.3 km/h 71% 0 mm
08:19 -13.1 °C -17.2 °C 1019.2 hPa NW 4.8 km/h 14.5 km/h 71% 0 mm
08:24 -13.1 °C -17.1 °C 1019.5 hPa WNW 6.4 km/h 16.1 km/h 72% 0 mm
08:29 -13.1 °C -17.1 °C 1019.5 hPa WNW 6.4 km/h 16.1 km/h 72% 0 mm
08:34 -13.1 °C -17.1 °C 1019.2 hPa WNW 6.4 km/h 12.9 km/h 72% 0 mm
08:39 -13.1 °C -17.1 °C 1019.5 hPa WNW 8 km/h 14.5 km/h 72% 0 mm
08:44 -13 °C -17 °C 1019.5 hPa WNW 8 km/h 16.1 km/h 72% 0 mm
08:49 -12.9 °C -17.1 °C 1019.2 hPa WNW 6.4 km/h 16.1 km/h 71% 0 mm
08:54 -12.8 °C -16.9 °C 1019.5 hPa WNW 11.3 km/h 14.5 km/h 71% 0 mm
08:59 -12.7 °C -17 °C 1019.5 hPa West 8 km/h 14.5 km/h 70% 0 mm
09:04 -12.5 °C -16.8 °C 1019.5 hPa WSW 8 km/h 12.9 km/h 70% 0 mm
09:09 -12.3 °C -16.8 °C 1019.5 hPa WNW 6.4 km/h 9.7 km/h 69% 0 mm
09:14 -12.1 °C -16.6 °C 1019.5 hPa WNW 8 km/h 11.3 km/h 69% 0 mm
09:19 -11.8 °C -16.4 °C 1019.5 hPa WNW 4.8 km/h 11.3 km/h 69% 0 mm
09:24 -11.6 °C -16.3 °C 1019.9 hPa WNW 6.4 km/h 17.7 km/h 68% 0 mm
09:29 -11.6 °C -16.3 °C 1020.2 hPa WNW 8 km/h 17.7 km/h 68% 0 mm
09:34 -11.5 °C -16.2 °C 1020.2 hPa West 8 km/h 17.7 km/h 68% 0 mm
09:39 -11.4 °C -16.2 °C 1020.2 hPa West 8 km/h 16.1 km/h 68% 0 mm
09:44 -11.4 °C -16.1 °C 1020.5 hPa West 4.8 km/h 16.1 km/h 68% 0 mm
09:49 -11.3 °C -16.2 °C 1020.5 hPa West 3.2 km/h 8 km/h 67% 0 mm
09:54 -11.2 °C -16.2 °C 1020.5 hPa West 4.8 km/h 9.7 km/h 67% 0 mm
09:59 -11.2 °C -16.1 °C 1020.5 hPa WSW 8 km/h 11.3 km/h 67% 0 mm
10:04 -11 °C -16.3 °C 1020.5 hPa West 11.3 km/h 12.9 km/h 65% 0 mm
10:09 -10.9 °C -16.2 °C 1020.5 hPa WSW 3.2 km/h 11.3 km/h 65% 0 mm
10:14 -10.8 °C -16.1 °C 1020.9 hPa SW 4.8 km/h 6.4 km/h 65% 0 mm
10:19 -10.8 °C -15.9 °C 1021.2 hPa West 4.8 km/h 9.7 km/h 66% 0 mm
10:24 -10.6 °C -15.7 °C 1021.2 hPa WNW 1.6 km/h 12.9 km/h 66% 0 mm
10:29 -10.4 °C -15.6 °C 1021.2 hPa WSW 4.8 km/h 12.9 km/h 66% 0 mm
10:34 -10.2 °C -15.2 °C 1021.6 hPa SW 3.2 km/h 6.4 km/h 67% 0 mm
10:39 -9.6 °C -15.2 °C 1021.2 hPa West 1.6 km/h 4.8 km/h 64% 0 mm
10:44 -9.1 °C -15.1 °C 1021.2 hPa West 1.6 km/h 8 km/h 62% 0 mm
10:49 -8.9 °C -15.4 °C 1020.9 hPa WNW 4.8 km/h 11.3 km/h 59% 0 mm
10:54 -8.8 °C -15.2 °C 1020.9 hPa West 9.7 km/h 11.3 km/h 60% 0 mm
10:59 -8.9 °C -15.9 °C 1021.2 hPa West 4.8 km/h 14.5 km/h 57% 0 mm
11:04 -8.9 °C -15.9 °C 1020.9 hPa WSW 8 km/h 16.1 km/h 57% 0 mm
11:09 -8.5 °C -15.3 °C 1021.2 hPa West 8 km/h 17.7 km/h 58% 0 mm
11:14 -8.4 °C -15.2 °C 1021.2 hPa West 11.3 km/h 14.5 km/h 58% 0 mm
11:19 -8.3 °C -15.5 °C 1021.2 hPa WSW 6.4 km/h 17.7 km/h 56% 0 mm
11:24 -8.2 °C -15.6 °C 1021.6 hPa NW 8 km/h 20.9 km/h 55% 0 mm
11:29 -8.2 °C -15.9 °C 1021.6 hPa West 9.7 km/h 20.9 km/h 54% 0 mm
11:34 -8.2 °C -15.4 °C 1021.2 hPa West 9.7 km/h 20.9 km/h 56% 0 mm
11:39 -8.4 °C -15.6 °C 1021.2 hPa West 9.7 km/h 20.9 km/h 56% 0 mm
11:44 -8.4 °C -15.7 °C 1020.9 hPa West 11.3 km/h 20.9 km/h 56% 0 mm
11:49 -8.4 °C -15.7 °C 1020.9 hPa West 9.7 km/h 20.9 km/h 56% 0 mm
11:54 -8.6 °C -15.8 °C 1020.9 hPa West 9.7 km/h 19.3 km/h 56% 0 mm
11:59 -8.5 °C -15.7 °C 1020.9 hPa WNW 6.4 km/h 16.1 km/h 56% 0 mm
12:04 -8.4 °C -15.9 °C 1020.9 hPa West 8 km/h 16.1 km/h 55% 0 mm
12:09 -8.3 °C -15.5 °C 1020.9 hPa West 14.5 km/h 16.1 km/h 56% 0 mm
12:14 -8.1 °C -15.3 °C 1020.9 hPa WNW 12.9 km/h 19.3 km/h 56% 0 mm
12:19 -8.1 °C -15.5 °C 1020.9 hPa SW 14.5 km/h 19.3 km/h 55% 0 mm
12:24 -8 °C -15.4 °C 1020.9 hPa West 6.4 km/h 19.3 km/h 55% 0 mm
12:29 -8 °C -15.4 °C 1020.9 hPa WSW 11.3 km/h 25.7 km/h 55% 0 mm
12:34 -8 °C -15.4 °C 1020.9 hPa WNW 9.7 km/h 20.9 km/h 55% 0 mm
12:39 -8 °C -15.4 °C 1020.5 hPa West 11.3 km/h 20.9 km/h 55% 0 mm
12:44 -8.1 °C -15.7 °C 1020.5 hPa West 11.3 km/h 20.9 km/h 54% 0 mm
12:49 -8.1 °C -15.5 °C 1020.5 hPa West 11.3 km/h 20.9 km/h 55% 0 mm
12:54 -8.1 °C -15.8 °C 1020.5 hPa WNW 11.3 km/h 17.7 km/h 54% 0 mm
12:59 -8.1 °C -15.1 °C 1020.5 hPa West 12.9 km/h 24.1 km/h 57% 0 mm
13:04 -7.8 °C -15.3 °C 1020.5 hPa NW 25.7 km/h 25.7 km/h 55% 0 mm
13:09 -8 °C -15.1 °C 1020.9 hPa West 11.3 km/h 25.7 km/h 57% 0 mm
13:14 -7.8 °C -15.1 °C 1020.9 hPa West 12.9 km/h 25.7 km/h 56% 0 mm
13:19 -7.8 °C -15.1 °C 1020.9 hPa West 12.9 km/h 24.1 km/h 56% 0 mm
13:24 -7.8 °C -15.3 °C 1020.9 hPa West 9.7 km/h 24.1 km/h 55% 0 mm
13:29 -7.8 °C -15.1 °C 1020.9 hPa West 6.4 km/h 17.7 km/h 56% 0 mm
13:34 -7.7 °C -14.8 °C 1020.9 hPa West 11.3 km/h 20.9 km/h 57% 0 mm
13:39 -7.7 °C -15 °C 1020.9 hPa West 16.1 km/h 22.5 km/h 56% 0 mm
13:44 -7.7 °C -14.8 °C 1020.9 hPa West 12.9 km/h 27.4 km/h 57% 0 mm
13:49 -7.6 °C -14.6 °C 1020.9 hPa West 12.9 km/h 27.4 km/h 57% 0 mm
13:54 -7.4 °C -14.4 °C 1020.9 hPa West 12.9 km/h 24.1 km/h 57% 0 mm
13:59 -7.3 °C -14.6 °C 1020.9 hPa West 8 km/h 29 km/h 56% 0 mm
14:04 -7.3 °C -14.3 °C 1020.9 hPa WSW 24.1 km/h 24.1 km/h 57% 0 mm
14:09 -7.4 °C -14.5 °C 1021.2 hPa WSW 17.7 km/h 29 km/h 57% 0 mm
14:14 -7.4 °C -14.3 °C 1020.9 hPa WSW 14.5 km/h 33.8 km/h 58% 0 mm
14:19 -7.6 °C -14.8 °C 1020.9 hPa WSW 12.9 km/h 33.8 km/h 56% 0 mm
14:24 -7.4 °C -14.9 °C 1020.9 hPa WSW 9.7 km/h 22.5 km/h 55% 0 mm
14:29 -7.5 °C -14.8 °C 1020.9 hPa West 17.7 km/h 17.7 km/h 56% 0 mm
14:34 -7.6 °C -14.9 °C 1020.9 hPa West 8 km/h 24.1 km/h 56% 0 mm
14:39 -7.5 °C -14.8 °C 1020.9 hPa SW 9.7 km/h 19.3 km/h 56% 0 mm
14:44 -7.3 °C -14.6 °C 1020.9 hPa West 8 km/h 19.3 km/h 56% 0 mm
14:49 -7.4 °C -14.3 °C 1020.9 hPa SW 19.3 km/h 22.5 km/h 58% 0 mm
14:54 -7.6 °C -14.4 °C 1021.2 hPa West 12.9 km/h 25.7 km/h 58% 0 mm
14:59 -7.7 °C -14.5 °C 1021.2 hPa WNW 6.4 km/h 24.1 km/h 58% 0 mm
15:04 -7.9 °C -14.5 °C 1021.6 hPa West 6.4 km/h 22.5 km/h 59% 0 mm
15:09 -8.1 °C -14.5 °C 1021.6 hPa West 9.7 km/h 24.1 km/h 60% 0 mm
15:14 -8.2 °C -14.4 °C 1021.6 hPa West 11.3 km/h 24.1 km/h 61% 0 mm
15:19 -8.1 °C -14.1 °C 1021.9 hPa West 8 km/h 20.9 km/h 62% 0 mm
15:24 -8.2 °C -14.2 °C 1021.9 hPa West 9.7 km/h 22.5 km/h 62% 0 mm
15:29 -8.2 °C -14.2 °C 1021.9 hPa West 9.7 km/h 22.5 km/h 62% 0 mm
15:34 -8.2 °C -14.2 °C 1022.2 hPa West 14.5 km/h 19.3 km/h 62% 0 mm
15:39 -8.2 °C -13.7 °C 1022.2 hPa WSW 6.4 km/h 19.3 km/h 65% 0 mm
15:44 -8.2 °C -13.8 °C 1022.2 hPa West 12.9 km/h 17.7 km/h 64% 0 mm
15:49 -8.3 °C -13.7 °C 1022.2 hPa West 22.5 km/h 22.5 km/h 65% 0 mm
15:54 -8.3 °C -13.7 °C 1022.2 hPa NW 9.7 km/h 22.5 km/h 65% 0 mm
15:59 -8.4 °C -13.8 °C 1022.2 hPa WSW 12.9 km/h 16.1 km/h 65% 0 mm
16:04 -8.4 °C -13.8 °C 1022.2 hPa West 12.9 km/h 14.5 km/h 65% 0 mm
16:09 -8.4 °C -13.8 °C 1022.2 hPa WSW 6.4 km/h 12.9 km/h 65% 0 mm
16:14 -8.4 °C -13.8 °C 1022.2 hPa West 6.4 km/h 14.5 km/h 65% 0 mm
16:19 -8.5 °C -13.9 °C 1022.6 hPa West 9.7 km/h 19.3 km/h 65% 0 mm
16:24 -8.6 °C -13.9 °C 1022.6 hPa West 9.7 km/h 19.3 km/h 65% 0 mm
16:29 -8.7 °C -14.3 °C 1022.6 hPa West 9.7 km/h 17.7 km/h 64% 0 mm
16:34 -8.8 °C -14.2 °C 1022.6 hPa West 9.7 km/h 16.1 km/h 65% 0 mm
16:44 -8.8 °C -14.6 °C 1022.6 hPa NW 8 km/h 20.9 km/h 63% 0 mm
16:49 -8.8 °C -14.6 °C 1022.9 hPa West 9.7 km/h 19.3 km/h 63% 0 mm
16:54 -9 °C -14.9 °C 1022.9 hPa West 9.7 km/h 24.1 km/h 62% 0 mm
16:59 -9.1 °C -15.1 °C 1022.9 hPa West 12.9 km/h 20.9 km/h 62% 0 mm
17:04 -9.3 °C -15.2 °C 1023.2 hPa WNW 4.8 km/h 19.3 km/h 62% 0 mm
17:09 -9.4 °C -15.4 °C 1023.2 hPa WNW 6.4 km/h 20.9 km/h 62% 0 mm
17:14 -9.5 °C -15.6 °C 1023.2 hPa WSW 16.1 km/h 19.3 km/h 61% 0 mm
17:19 -9.6 °C -15.7 °C 1023.2 hPa West 9.7 km/h 20.9 km/h 61% 0 mm
17:24 -9.7 °C -15.8 °C 1023.6 hPa West 8 km/h 20.9 km/h 61% 0 mm
17:29 -9.8 °C -15.9 °C 1023.6 hPa West 6.4 km/h 20.9 km/h 61% 0 mm
17:34 -9.8 °C -16.2 °C 1023.6 hPa West 9.7 km/h 20.9 km/h 60% 0 mm
17:39 -9.9 °C -16.1 °C 1023.9 hPa WNW 11.3 km/h 19.3 km/h 61% 0 mm
17:44 -10 °C -16.1 °C 1023.9 hPa West 9.7 km/h 19.3 km/h 61% 0 mm
17:49 -10.1 °C -16.2 °C 1024.3 hPa West 8 km/h 19.3 km/h 61% 0 mm
17:54 -10.2 °C -16.1 °C 1024.3 hPa WNW 3.2 km/h 16.1 km/h 62% 0 mm
17:59 -10.3 °C -16.2 °C 1024.3 hPa West 6.4 km/h 16.1 km/h 62% 0 mm
18:04 -10.3 °C -16.1 °C 1024.3 hPa SW 3.2 km/h 9.7 km/h 63% 0 mm
18:09 -10.4 °C -16.2 °C 1024.6 hPa West 1.6 km/h 11.3 km/h 63% 0 mm
18:14 -10.4 °C -16.2 °C 1024.6 hPa NW 4.8 km/h 12.9 km/h 63% 0 mm
18:19 -10.6 °C -16.1 °C 1024.6 hPa WNW 8 km/h 12.9 km/h 64% 0 mm
18:24 -10.7 °C -16.2 °C 1024.6 hPa WNW 4.8 km/h 12.9 km/h 64% 0 mm
18:29 -10.7 °C -16.2 °C 1024.6 hPa West 9.7 km/h 16.1 km/h 64% 0 mm
18:34 -10.7 °C -16.2 °C 1024.9 hPa West 8 km/h 16.1 km/h 64% 0 mm
18:39 -10.8 °C -16.3 °C 1024.9 hPa West 8 km/h 14.5 km/h 64% 0 mm
18:44 -10.8 °C -16.3 °C 1025.3 hPa West 8 km/h 19.3 km/h 64% 0 mm
18:49 -10.8 °C -16.3 °C 1025.3 hPa West 8 km/h 19.3 km/h 64% 0 mm
18:54 -10.8 °C -16.3 °C 1025.3 hPa West 8 km/h 19.3 km/h 64% 0 mm
18:59 -10.9 °C -16.4 °C 1025.3 hPa West 3.2 km/h 12.9 km/h 64% 0 mm
19:04 -10.9 °C -16.4 °C 1025.3 hPa WNW 1.6 km/h 8 km/h 64% 0 mm
19:09 -11 °C -16.3 °C 1025.3 hPa West 8 km/h 9.7 km/h 65% 0 mm
19:14 -11.1 °C -16.3 °C 1025.3 hPa WNW 4.8 km/h 9.7 km/h 65% 0 mm
19:19 -11.2 °C -16.4 °C 1025.6 hPa West 6.4 km/h 11.3 km/h 65% 0 mm
19:24 -11.2 °C -16.7 °C 1025.6 hPa WNW 8 km/h 14.5 km/h 64% 0 mm
19:29 -11.2 °C -16.7 °C 1025.6 hPa WSW 8 km/h 16.1 km/h 64% 0 mm
19:34 -11.2 °C -16.7 °C 1026 hPa WNW 4.8 km/h 9.7 km/h 64% 0 mm
19:39 -11.2 °C -16.7 °C 1026 hPa West 4.8 km/h 8 km/h 64% 0 mm
19:44 -11.3 °C -16.7 °C 1026 hPa WNW 4.8 km/h 12.9 km/h 64% 0 mm
19:49 -11.3 °C -16.7 °C 1026 hPa WNW 4.8 km/h 12.9 km/h 64% 0 mm
19:54 -11.3 °C -16.8 °C 1026.3 hPa WNW 4.8 km/h 12.9 km/h 64% 0 mm
19:59 -11.4 °C -16.9 °C 1026.3 hPa WNW 4.8 km/h 12.9 km/h 64% 0 mm
20:04 -11.4 °C -16.9 °C 1026.3 hPa NW 1.6 km/h 12.9 km/h 64% 0 mm
20:09 -11.5 °C -16.9 °C 1026 hPa West 6.4 km/h 8 km/h 64% 0 mm
20:14 -11.6 °C -17 °C 1026 hPa NW 4.8 km/h 14.5 km/h 64% 0 mm
20:19 -11.6 °C -17 °C 1026.3 hPa WNW 4.8 km/h 14.5 km/h 64% 0 mm
20:24 -11.6 °C -17 °C 1026.3 hPa WNW 6.4 km/h 12.9 km/h 64% 0 mm
20:29 -11.6 °C -17.1 °C 1026 hPa WNW 6.4 km/h 12.9 km/h 64% 0 mm
20:34 -11.6 °C -17.1 °C 1026 hPa WNW 6.4 km/h 11.3 km/h 64% 0 mm
20:39 -11.6 °C -17.1 °C 1026 hPa WNW 8 km/h 11.3 km/h 64% 0 mm
20:44 -11.7 °C -17.2 °C 1026 hPa West 4.8 km/h 8 km/h 64% 0 mm
20:49 -11.7 °C -17.2 °C 1026 hPa West 4.8 km/h 8 km/h 64% 0 mm
20:54 -11.8 °C -17.2 °C 1026.3 hPa West 3.2 km/h 8 km/h 64% 0 mm
20:59 -11.8 °C -17.1 °C 1026.3 hPa West 3.2 km/h 8 km/h 65% 0 mm
21:04 -11.9 °C -17.2 °C 1026.3 hPa West 3.2 km/h 8 km/h 65% 0 mm
21:09 -11.9 °C -17.2 °C 1026.3 hPa West 1.6 km/h 4.8 km/h 65% 0 mm
21:14 -11.9 °C -17.2 °C 1026.3 hPa WSW 1.6 km/h 4.8 km/h 65% 0 mm
21:19 -12 °C -17.2 °C 1026.3 hPa Calm   1.6 km/h 65% 0 mm
21:24 -12.2 °C -17.6 °C 1026.3 hPa Calm     64% 0 mm
21:29 -12.2 °C -17.7 °C 1026.3 hPa Calm     64% 0 mm
21:34 -12.4 °C -17.8 °C 1026.3 hPa Calm     64% 0 mm
21:39 -12.7 °C -17.7 °C 1026.3 hPa Calm     66% 0 mm
21:44 -12.8 °C -17.9 °C 1026.3 hPa Calm     66% 0 mm
21:49 -13 °C -18 °C 1026.3 hPa Calm     66% 0 mm
21:54 -13.2 °C -18 °C 1026.3 hPa Calm     67% 0 mm
21:59 -13.3 °C -18 °C 1026.3 hPa Calm     68% 0 mm
22:04 -13.5 °C -18 °C 1026.3 hPa Calm     69% 0 mm
22:09 -13.6 °C -18.1 °C 1026.6 hPa Calm     69% 0 mm
22:14 -13.7 °C -18.2 °C 1026.6 hPa Calm     69% 0 mm
22:19 -13.8 °C -18.1 °C 1026.6 hPa Calm     70% 0 mm
22:24 -13.9 °C -18.2 °C 1026.6 hPa Calm     70% 0 mm
22:29 -14.1 °C -18.5 °C 1027 hPa Calm     69% 0 mm
22:34 -14.2 °C -18.4 °C 1027 hPa Calm     70% 0 mm
22:39 -14.3 °C -18.4 °C 1027 hPa Calm     71% 0 mm
22:44 -14.4 °C -18.5 °C 1027 hPa Calm     71% 0 mm
22:49 -14.5 °C -18.4 °C 1027 hPa Calm     72% 0 mm
22:54 -14.6 °C -18.5 °C 1027 hPa Calm     72% 0 mm
22:59 -14.6 °C -18.2 °C 1027.3 hPa Calm     74% 0 mm
23:04 -14.6 °C -18 °C 1027.3 hPa Calm     75% 0 mm
23:09 -14.4 °C -17.7 °C 1027.3 hPa Calm     76% 0 mm
23:14 -14.3 °C -17.4 °C 1027.3 hPa Calm     77% 0 mm
23:19 -14.1 °C -17.2 °C 1027.3 hPa Calm     77% 0 mm
23:24 -13.8 °C -16.9 °C 1027.3 hPa Calm     77% 0 mm
23:29 -13.5 °C -16.7 °C 1027.3 hPa Calm     77% 0 mm
23:34 -13.3 °C -16.4 °C 1027.3 hPa WSW 1.6 km/h 3.2 km/h 77% 0 mm
23:39 -12.9 °C -16.3 °C 1027.3 hPa Calm   3.2 km/h 76% 0 mm
23:44 -12.8 °C -16.3 °C 1027.3 hPa Calm   4.8 km/h 75% 0 mm
23:49 -12.7 °C -16.2 °C 1027.3 hPa WSW 1.6 km/h 4.8 km/h 75% 0 mm
23:54 -12.6 °C -16.2 °C 1027.3 hPa West 1.6 km/h 4.8 km/h 74% 0 mm
23:59 -12.5 °C -16.2 °C 1027.3 hPa Calm   4.8 km/h 74% 0 mm
Buffalo, New York, USA
Compliments of Weather Underground - 2.5 mb